Weather Roundup
Issued by NWS Chicago, IL

Home | Current Version | Previous Version | Graphics & Text | Print | Product List | Glossary On
Versions: 1 2 3 4 5 6 7 8 9 10 11 12 13 14 15 16 17 18 19 20 21 22 23 24 25 26 27 28 29 30 31 32 33 34 35 36 37 38 39 40 41 42 43 44 45 46 47 48 49 50
000
NZUS59 KLOT 242203
HRRLOT

CHICAGO AREA WEATHER ROUNDUP
NATIONAL WEATHER SERVICE CHICAGO/ROMEOVILLE IL
500 PM CDT SUN JUL 24 2016

NOTE: "FAIR" INDICATES FEW OR NO CLOUDS BELOW 12,000 FEET WITH NO
SIGNIFICANT WEATHER AND/OR OBSTRUCTIONS TO VISIBILITY.

* THESE STATIONS ARE NOT UNDER NWS QUALITY CONTROL. THEY ALSO MAY NOT
  REPORT WEATHER SUCH AS PRECIPITATION OR FOG.

ILZ005-006-012>014-019>023-242300-
NORTHEAST ILLINOIS

CITY           SKY/WX    TMP DP  RH WIND       PRES   REMARKS
OHARE          CLOUDY    91  78  65 SW10      29.84F HX 106
MIDWAY         CLOUDY    92  79  65 S15G24    29.86S HX 108
AURORA         MOSUNNY   92  80  68 SW10G20   29.86F HX 110
LANSING*       CLOUDY    90  78  68 SW16G23   29.88F HX 104
WAUKEGAN       CLOUDY    92  79  65 SW12G18   29.83F HX 108
DUPAGE AIRPORT MOSUNNY   91  79  67 SW13G22   29.85F THUNDER HX 107
WHEELING       CLOUDY    92  73  53 SW9G25    29.85F HX 100
MORRIS*        LGT RAIN  88  82  82 SW9       29.86F HX 107
NORTHERLY ISL    N/A     89  76  65 S12         N/A  HX 100
$$

WIZ051-052-058>065-066-070>072-242300-
SOUTHEAST WISCONSIN

CITY           SKY/WX    TMP DP  RH WIND       PRES   REMARKS
MILWAUKEE      CLOUDY    92  76  59 S12       29.81S HX 104
KENOSHA*       CLOUDY    92  79  65 SW12      29.85S HX 108
RACINE*        CLOUDY    86  71  60 S10       29.85S HX  91
BURLINGTON     MOSUNNY   91  78  65 SW13G18   29.84R HX 106
$$

INZ001>003-010>013-019-020-242300-
NORTHWEST INDIANA

CITY           SKY/WX    TMP DP  RH WIND       PRES   REMARKS
GARY*          PTSUNNY   91 N/A N/A S10       29.88S
MICHIGAN CITY* NOT AVBL
RENSSELAER*    NOT AVBL
VALPARAISO     CLOUDY    90  77  65 SW12G22   29.91R HX 103
$$

LMZ740>746-242300-
SOUTHERN LAKE MICHIGAN

STATION/POSITION TIME  SKY/WX   TEMP WIND        PRES    VSBY
                                AIR  DIR/SP/G
                 (UTC)          (F)  (DEG/KT/KT) (MB)    (MI)
HARRISON CRIB    2100            88  200/ 23/ 24   N/A
BURNHAM HARBOR   2200            90  190/ 17/ 20   N/A
CALUMET HARBOR   2100            89  190/  8/ 16 1011.1R
BURNS HARBOR     2110            88  210/ 12/ 20 1012.2R
MICHIGAN CITY    2100            86  180/ 11/ 15   N/A
$$

ABBREVIATIONS USED IN REMARKS
   TC - TEMPERATURE IN CELSIUS
  WCI - WIND CHILL INDEX
   HX - HEAT INDEX
  VSB - VISIBILITY
$$




USA.gov is the U.S. government's official web portal to all federal, state and local government web resources and services.